Portada
METAR-TAF:

METAR-TAF

Aeroports :

Benton Harbor, Michigan, Estats Units d'Amèrica

latitud: 42-07-43N, longitud: 086-25-42W, altitud: 196 m

Observació

L'informe es va fer fa 26 minuts, a les 03:53 UTC
Vent calma
Temperatura 21°C
Humitat 100%
Pressió 1016 hPa
Visibilitat: 8.0 km
Cel clar
boirina

METAR: KBEH 180353Z AUTO 00000KT 5SM BR CLR 21/21 A2999 RMK AO2 SLP150 T02110206

Hora: 00:19 (04:19 UTC)


TAF: manca

Observacions i pronòstics meteorològics de més de 4000 aeroports (METAR i TAF).

Les estacions disponibles són els punts grocs i vermells al mapa.

Posi el ratolí al punt desitjat per veure el nom de l'estació.

Feu clic per veure les observacions i els pronòstics meteorològics.

Per canviar el mapa: feu clic els botons verds amb una creu de color negre per apropar; al botó verd amb un guió per allunyar la imatge; o en les fletxes verdes per a mapes adjacents.


METAR-TAF: